owner,sensor,date,latitude,longitude,air_pressure(mBar),qcFlag 
WAVCIS,ioos:station:WAVCIS:CSI09:1,2013-01-01T00:00:00Z,29.1015,-89.9782,1019.54,11111222 
WAVCIS,ioos:station:WAVCIS:CSI09:1,2013-01-01T01:00:00Z,29.1015,-89.9782,1019.76,11111222 
WAVCIS,ioos:station:WAVCIS:CSI09:1,2013-01-01T02:00:00Z,29.1015,-89.9782,1019.63,11111222 
WAVCIS,ioos:station:WAVCIS:CSI09:1,2013-01-01T03:00:00Z,29.1015,-89.9782,1019.17,11111222 
WAVCIS,ioos:station:WAVCIS:CSI09:1,2013-01-01T04:00:00Z,29.1015,-89.9782,1018.87,11111222 
WAVCIS,ioos:station:WAVCIS:CSI09:1,2013-01-01T05:00:00Z,29.1015,-89.9782,1018.57,11111222 
WAVCIS,ioos:station:WAVCIS:CSI09:1,2013-01-01T06:00:00Z,29.1015,-89.9782,1018.02,11111222 
WAVCIS,ioos:station:WAVCIS:CSI09:1,2013-01-01T07:00:00Z,29.1015,-89.9782,1017.36,11111222 
WAVCIS,ioos:station:WAVCIS:CSI09:1,2013-01-01T08:00:00Z,29.1015,-89.9782,1016.89,11111222 
WAVCIS,ioos:station:WAVCIS:CSI09:1,2013-01-01T09:00:00Z,29.1015,-89.9782,1016.74,11111222 
WAVCIS,ioos:station:WAVCIS:CSI09:1,2013-01-01T10:00:00Z,29.1015,-89.9782,1016.08,11111222 
WAVCIS,ioos:station:WAVCIS:CSI09:1,2013-01-01T11:00:00Z,29.1015,-89.9782,1015.38,11111222 
WAVCIS,ioos:station:WAVCIS:CSI09:1,2013-01-01T12:00:00Z,29.1015,-89.9782,1015.56,11111222 
WAVCIS,ioos:station:WAVCIS:CSI09:1,2013-01-01T13:00:00Z,29.1015,-89.9782,1015.63,11111222 
WAVCIS,ioos:station:WAVCIS:CSI09:1,2013-01-01T14:00:00Z,29.1015,-89.9782,1015.76,11111222 
WAVCIS,ioos:station:WAVCIS:CSI09:1,2013-01-01T15:00:00Z,29.1015,-89.9782,1016.14,11111222 
WAVCIS,ioos:station:WAVCIS:CSI09:1,2013-01-01T16:00:00Z,29.1015,-89.9782,1016.44,11111222 
WAVCIS,ioos:station:WAVCIS:CSI09:1,2013-01-01T17:00:00Z,29.1015,-89.9782,1015.79,11111222 
WAVCIS,ioos:station:WAVCIS:CSI09:1,2013-01-01T18:00:00Z,29.1015,-89.9782,1014.31,11111222 
WAVCIS,ioos:station:WAVCIS:CSI09:1,2013-01-01T19:00:00Z,29.1015,-89.9782,1013.11,11111222 
WAVCIS,ioos:station:WAVCIS:CSI09:1,2013-01-01T20:00:00Z,29.1015,-89.9782,1012.71,11111222 
WAVCIS,ioos:station:WAVCIS:CSI09:1,2013-01-01T21:00:00Z,29.1015,-89.9782,1012.77,11111222 
WAVCIS,ioos:station:WAVCIS:CSI09:1,2013-01-01T22:00:00Z,29.1015,-89.9782,1012.79,11111222 
WAVCIS,ioos:station:WAVCIS:CSI09:1,2013-01-01T23:00:00Z,29.1015,-89.9782,1013.11,11111222 
WAVCIS,ioos:station:WAVCIS:CSI09:1,2013-01-02T00:00:00Z,29.1015,-89.9782,1013.52,11111222 
WAVCIS,ioos:station:WAVCIS:CSI09:1,2013-01-02T01:00:00Z,29.1015,-89.9782,1013.88,11111222 
WAVCIS,ioos:station:WAVCIS:CSI09:1,2013-01-02T02:00:00Z,29.1015,-89.9782,1015.02,11111222 
WAVCIS,ioos:station:WAVCIS:CSI09:1,2013-01-02T03:00:00Z,29.1015,-89.9782,1015.3,11111222 
WAVCIS,ioos:station:WAVCIS:CSI09:1,2013-01-02T04:00:00Z,29.1015,-89.9782,1015.87,11111222 
WAVCIS,ioos:station:WAVCIS:CSI09:1,2013-01-02T05:00:00Z,29.1015,-89.9782,1016.14,11111222 
WAVCIS,ioos:station:WAVCIS:CSI09:1,2013-01-02T06:00:00Z,29.1015,-89.9782,1015.98,11111222 
WAVCIS,ioos:station:WAVCIS:CSI09:1,2013-01-02T07:00:00Z,29.1015,-89.9782,1016.11,11111222 
WAVCIS,ioos:station:WAVCIS:CSI09:1,2013-01-02T08:00:00Z,29.1015,-89.9782,1016.66,11111222 
WAVCIS,ioos:station:WAVCIS:CSI09:1,2013-01-02T09:00:00Z,29.1015,-89.9782,1016.14,11111222 
WAVCIS,ioos:station:WAVCIS:CSI09:1,2013-01-02T10:00:00Z,29.1015,-89.9782,1015.93,11111222 
WAVCIS,ioos:station:WAVCIS:CSI09:1,2013-01-02T11:00:00Z,29.1015,-89.9782,1016.74,11111222 
WAVCIS,ioos:station:WAVCIS:CSI09:1,2013-01-02T12:00:00Z,29.1015,-89.9782,1017.44,11111222 
WAVCIS,ioos:station:WAVCIS:CSI09:1,2013-01-02T13:00:00Z,29.1015,-89.9782,1018.09,11111222 
WAVCIS,ioos:station:WAVCIS:CSI09:1,2013-01-02T14:00:00Z,29.1015,-89.9782,1018.79,11111222 
WAVCIS,ioos:station:WAVCIS:CSI09:1,2013-01-02T15:00:00Z,29.1015,-89.9782,1019.15,11111222 
WAVCIS,ioos:station:WAVCIS:CSI09:1,2013-01-02T16:00:00Z,29.1015,-89.9782,1019.57,11111222 
WAVCIS,ioos:station:WAVCIS:CSI09:1,2013-01-02T17:00:00Z,29.1015,-89.9782,1019.59,11111222 
WAVCIS,ioos:station:WAVCIS:CSI09:1,2013-01-02T18:00:00Z,29.1015,-89.9782,1018.85,11111222 
WAVCIS,ioos:station:WAVCIS:CSI09:1,2013-01-02T19:00:00Z,29.1015,-89.9782,1017.99,11111222 
WAVCIS,ioos:station:WAVCIS:CSI09:1,2013-01-02T20:00:00Z,29.1015,-89.9782,1017.62,11111222 
WAVCIS,ioos:station:WAVCIS:CSI09:1,2013-01-02T21:00:00Z,29.1015,-89.9782,1018.96,11111222 
WAVCIS,ioos:station:WAVCIS:CSI09:1,2013-01-02T22:00:00Z,29.1015,-89.9782,1018.98,11111222 
WAVCIS,ioos:station:WAVCIS:CSI09:1,2013-01-02T23:00:00Z,29.1015,-89.9782,1018.61,11111222 
WAVCIS,ioos:station:WAVCIS:CSI09:1,2013-01-03T00:00:00Z,29.1015,-89.9782,1019.07,11111222 
WAVCIS,ioos:station:WAVCIS:CSI09:1,2013-01-03T01:00:00Z,29.1015,-89.9782,1020.61,11111222 
WAVCIS,ioos:station:WAVCIS:CSI09:1,2013-01-03T02:00:00Z,29.1015,-89.9782,1019.79,11111222 
WAVCIS,ioos:station:WAVCIS:CSI09:1,2013-01-03T03:00:00Z,29.1015,-89.9782,1020.22,11111222 
WAVCIS,ioos:station:WAVCIS:CSI09:1,2013-01-03T04:00:00Z,29.1015,-89.9782,1021.21,11111222 
WAVCIS,ioos:station:WAVCIS:CSI09:1,2013-01-03T05:00:00Z,29.1015,-89.9782,1021.02,11111222 
WAVCIS,ioos:station:WAVCIS:CSI09:1,2013-01-03T06:00:00Z,29.1015,-89.9782,1021.44,11111222 
WAVCIS,ioos:station:WAVCIS:CSI09:1,2013-01-03T07:00:00Z,29.1015,-89.9782,1020.57,11111222 
WAVCIS,ioos:station:WAVCIS:CSI09:1,2013-01-03T08:00:00Z,29.1015,-89.9782,1021.64,11111222 
WAVCIS,ioos:station:WAVCIS:CSI09:1,2013-01-03T09:00:00Z,29.1015,-89.9782,1021.61,11111222 
WAVCIS,ioos:station:WAVCIS:CSI09:1,2013-01-03T10:00:00Z,29.1015,-89.9782,1020.84,11111222 
WAVCIS,ioos:station:WAVCIS:CSI09:1,2013-01-03T11:00:00Z,29.1015,-89.9782,1021.15,11111222 
WAVCIS,ioos:station:WAVCIS:CSI09:1,2013-01-03T12:00:00Z,29.1015,-89.9782,1022.19,11111222 
WAVCIS,ioos:station:WAVCIS:CSI09:1,2013-01-03T13:00:00Z,29.1015,-89.9782,1021.98,11111222 
WAVCIS,ioos:station:WAVCIS:CSI09:1,2013-01-03T14:00:00Z,29.1015,-89.9782,1022.78,11111222 
WAVCIS,ioos:station:WAVCIS:CSI09:1,2013-01-03T15:00:00Z,29.1015,-89.9782,1023.88,11111222 
WAVCIS,ioos:station:WAVCIS:CSI09:1,2013-01-03T16:00:00Z,29.1015,-89.9782,1024.21,11111222 
WAVCIS,ioos:station:WAVCIS:CSI09:1,2013-01-03T17:00:00Z,29.1015,-89.9782,1023.76,11111222 
WAVCIS,ioos:station:WAVCIS:CSI09:1,2013-01-03T18:00:00Z,29.1015,-89.9782,1023.25,11111222 
WAVCIS,ioos:station:WAVCIS:CSI09:1,2013-01-03T19:00:00Z,29.1015,-89.9782,1022.6,11111222 
WAVCIS,ioos:station:WAVCIS:CSI09:1,2013-01-03T20:00:00Z,29.1015,-89.9782,1022.46,11111222 
WAVCIS,ioos:station:WAVCIS:CSI09:1,2013-01-03T21:00:00Z,29.1015,-89.9782,1022.64,11111222 
WAVCIS,ioos:station:WAVCIS:CSI09:1,2013-01-03T22:00:00Z,29.1015,-89.9782,1023.28,11111222 
WAVCIS,ioos:station:WAVCIS:CSI09:1,2013-01-03T23:00:00Z,29.1015,-89.9782,1023.9,11111222 
WAVCIS,ioos:station:WAVCIS:CSI09:1,2013-01-04T00:00:00Z,29.1015,-89.9782,1024.65,11111222 
WAVCIS,ioos:station:WAVCIS:CSI09:1,2013-01-04T01:00:00Z,29.1015,-89.9782,1025.13,11111222 
WAVCIS,ioos:station:WAVCIS:CSI09:1,2013-01-04T02:00:00Z,29.1015,-89.9782,1025.55,11111222 
WAVCIS,ioos:station:WAVCIS:CSI09:1,2013-01-04T03:00:00Z,29.1015,-89.9782,1026.08,11111222 
WAVCIS,ioos:station:WAVCIS:CSI09:1,2013-01-04T04:00:00Z,29.1015,-89.9782,1026.4,11111222 
WAVCIS,ioos:station:WAVCIS:CSI09:1,2013-01-04T05:00:00Z,29.1015,-89.9782,1026.22,11111222 
WAVCIS,ioos:station:WAVCIS:CSI09:1,2013-01-04T06:00:00Z,29.1015,-89.9782,1026.76,11111222 
WAVCIS,ioos:station:WAVCIS:CSI09:1,2013-01-04T07:00:00Z,29.1015,-89.9782,1025.63,11111222 
WAVCIS,ioos:station:WAVCIS:CSI09:1,2013-01-04T08:00:00Z,29.1015,-89.9782,1025.74,11111222 
WAVCIS,ioos:station:WAVCIS:CSI09:1,2013-01-04T09:00:00Z,29.1015,-89.9782,1025.74,11111222 
WAVCIS,ioos:station:WAVCIS:CSI09:1,2013-01-04T10:00:00Z,29.1015,-89.9782,1025.76,11111222 
WAVCIS,ioos:station:WAVCIS:CSI09:1,2013-01-04T11:00:00Z,29.1015,-89.9782,1025.48,11111222 
WAVCIS,ioos:station:WAVCIS:CSI09:1,2013-01-04T12:00:00Z,29.1015,-89.9782,1025.87,11111222 
WAVCIS,ioos:station:WAVCIS:CSI09:1,2013-01-04T13:00:00Z,29.1015,-89.9782,1026.21,11111222 
WAVCIS,ioos:station:WAVCIS:CSI09:1,2013-01-04T14:00:00Z,29.1015,-89.9782,1027.49,11111222 
WAVCIS,ioos:station:WAVCIS:CSI09:1,2013-01-04T15:00:00Z,29.1015,-89.9782,1028.31,11111222 
WAVCIS,ioos:station:WAVCIS:CSI09:1,2013-01-04T16:00:00Z,29.1015,-89.9782,1028.26,11111222 
WAVCIS,ioos:station:WAVCIS:CSI09:1,2013-01-04T17:00:00Z,29.1015,-89.9782,1028.34,11111222 
WAVCIS,ioos:station:WAVCIS:CSI09:1,2013-01-04T18:00:00Z,29.1015,-89.9782,1027.57,11111222 
WAVCIS,ioos:station:WAVCIS:CSI09:1,2013-01-04T19:00:00Z,29.1015,-89.9782,1026.22,11111222 
WAVCIS,ioos:station:WAVCIS:CSI09:1,2013-01-04T20:00:00Z,29.1015,-89.9782,1026.34,11111222 
WAVCIS,ioos:station:WAVCIS:CSI09:1,2013-01-04T21:00:00Z,29.1015,-89.9782,1025.62,11111222 
WAVCIS,ioos:station:WAVCIS:CSI09:1,2013-01-04T22:00:00Z,29.1015,-89.9782,1025.67,11111222 
WAVCIS,ioos:station:WAVCIS:CSI09:1,2013-01-04T23:00:00Z,29.1015,-89.9782,1026.13,11111222 
WAVCIS,ioos:station:WAVCIS:CSI09:1,2013-01-05T00:00:00Z,29.1015,-89.9782,1026.79,11111222 
WAVCIS,ioos:station:WAVCIS:CSI09:1,2013-01-05T01:00:00Z,29.1015,-89.9782,1027.03,11111222 
WAVCIS,ioos:station:WAVCIS:CSI09:1,2013-01-05T02:00:00Z,29.1015,-89.9782,1027.22,11111222 
WAVCIS,ioos:station:WAVCIS:CSI09:1,2013-01-05T03:00:00Z,29.1015,-89.9782,1027.12,11111222 
WAVCIS,ioos:station:WAVCIS:CSI09:1,2013-01-05T04:00:00Z,29.1015,-89.9782,1026.66,11111222 
WAVCIS,ioos:station:WAVCIS:CSI09:1,2013-01-05T05:00:00Z,29.1015,-89.9782,1026.41,11111222 
WAVCIS,ioos:station:WAVCIS:CSI09:1,2013-01-05T06:00:00Z,29.1015,-89.9782,1025.59,11111222 
WAVCIS,ioos:station:WAVCIS:CSI09:1,2013-01-05T07:00:00Z,29.1015,-89.9782,1025.32,11111222 
WAVCIS,ioos:station:WAVCIS:CSI09:1,2013-01-05T08:00:00Z,29.1015,-89.9782,1024.38,11111222 
WAVCIS,ioos:station:WAVCIS:CSI09:1,2013-01-05T09:00:00Z,29.1015,-89.9782,1024.52,11111222 
WAVCIS,ioos:station:WAVCIS:CSI09:1,2013-01-05T10:00:00Z,29.1015,-89.9782,1023.97,11111222 
WAVCIS,ioos:station:WAVCIS:CSI09:1,2013-01-05T11:00:00Z,29.1015,-89.9782,1023.54,11111222 
WAVCIS,ioos:station:WAVCIS:CSI09:1,2013-01-05T12:00:00Z,29.1015,-89.9782,1023.52,11111222 
WAVCIS,ioos:station:WAVCIS:CSI09:1,2013-01-05T13:00:00Z,29.1015,-89.9782,1024.0,11111222 
WAVCIS,ioos:station:WAVCIS:CSI09:1,2013-01-05T14:00:00Z,29.1015,-89.9782,1024.93,11111222 
WAVCIS,ioos:station:WAVCIS:CSI09:1,2013-01-05T15:00:00Z,29.1015,-89.9782,1025.33,11111222 
WAVCIS,ioos:station:WAVCIS:CSI09:1,2013-01-05T16:00:00Z,29.1015,-89.9782,1025.5,11111222 
WAVCIS,ioos:station:WAVCIS:CSI09:1,2013-01-05T17:00:00Z,29.1015,-89.9782,1025.01,11111222 
WAVCIS,ioos:station:WAVCIS:CSI09:1,2013-01-05T18:00:00Z,29.1015,-89.9782,1023.55,11111222 
WAVCIS,ioos:station:WAVCIS:CSI09:1,2013-01-05T19:00:00Z,29.1015,-89.9782,1022.63,11111222 
WAVCIS,ioos:station:WAVCIS:CSI09:1,2013-01-05T20:00:00Z,29.1015,-89.9782,1022.62,11111222 
WAVCIS,ioos:station:WAVCIS:CSI09:1,2013-01-05T21:00:00Z,29.1015,-89.9782,1022.14,11111222 
WAVCIS,ioos:station:WAVCIS:CSI09:1,2013-01-05T22:00:00Z,29.1015,-89.9782,1021.83,11111222 
WAVCIS,ioos:station:WAVCIS:CSI09:1,2013-01-05T23:00:00Z,29.1015,-89.9782,1022.03,11111222 
WAVCIS,ioos:station:WAVCIS:CSI09:1,2013-01-06T00:00:00Z,29.1015,-89.9782,1021.75,11111222 
WAVCIS,ioos:station:WAVCIS:CSI09:1,2013-01-06T01:00:00Z,29.1015,-89.9782,1022.0,11111222 
WAVCIS,ioos:station:WAVCIS:CSI09:1,2013-01-06T02:00:00Z,29.1015,-89.9782,1021.77,11111222 
WAVCIS,ioos:station:WAVCIS:CSI09:1,2013-01-06T03:00:00Z,29.1015,-89.9782,1021.8,11111222 
WAVCIS,ioos:station:WAVCIS:CSI09:1,2013-01-06T04:00:00Z,29.1015,-89.9782,1022.16,11111222 
WAVCIS,ioos:station:WAVCIS:CSI09:1,2013-01-06T05:00:00Z,29.1015,-89.9782,1021.72,11111222 
WAVCIS,ioos:station:WAVCIS:CSI09:1,2013-01-06T06:00:00Z,29.1015,-89.9782,1020.86,11111222 
WAVCIS,ioos:station:WAVCIS:CSI09:1,2013-01-06T07:00:00Z,29.1015,-89.9782,1021.1,11111222 
WAVCIS,ioos:station:WAVCIS:CSI09:1,2013-01-06T08:00:00Z,29.1015,-89.9782,1019.62,11111222 
WAVCIS,ioos:station:WAVCIS:CSI09:1,2013-01-06T09:00:00Z,29.1015,-89.9782,1019.36,11111222 
WAVCIS,ioos:station:WAVCIS:CSI09:1,2013-01-06T10:00:00Z,29.1015,-89.9782,1019.05,11111222 
WAVCIS,ioos:station:WAVCIS:CSI09:1,2013-01-06T11:00:00Z,29.1015,-89.9782,1018.84,11111222 
WAVCIS,ioos:station:WAVCIS:CSI09:1,2013-01-06T12:00:00Z,29.1015,-89.9782,1019.46,11111222 
WAVCIS,ioos:station:WAVCIS:CSI09:1,2013-01-06T13:00:00Z,29.1015,-89.9782,1019.85,11111222 
WAVCIS,ioos:station:WAVCIS:CSI09:1,2013-01-06T14:00:00Z,29.1015,-89.9782,1020.4,11111222 
WAVCIS,ioos:station:WAVCIS:CSI09:1,2013-01-06T15:00:00Z,29.1015,-89.9782,1020.96,11111222 
WAVCIS,ioos:station:WAVCIS:CSI09:1,2013-01-06T16:00:00Z,29.1015,-89.9782,1021.63,11111222 
WAVCIS,ioos:station:WAVCIS:CSI09:1,2013-01-06T17:00:00Z,29.1015,-89.9782,1021.22,11111222 
WAVCIS,ioos:station:WAVCIS:CSI09:1,2013-01-06T18:00:00Z,29.1015,-89.9782,1020.48,11111222 
WAVCIS,ioos:station:WAVCIS:CSI09:1,2013-01-06T19:00:00Z,29.1015,-89.9782,1020.03,11111222 
WAVCIS,ioos:station:WAVCIS:CSI09:1,2013-01-06T20:00:00Z,29.1015,-89.9782,1019.92,11111222 
WAVCIS,ioos:station:WAVCIS:CSI09:1,2013-01-06T21:00:00Z,29.1015,-89.9782,1020.0,11111222 
WAVCIS,ioos:station:WAVCIS:CSI09:1,2013-01-06T22:00:00Z,29.1015,-89.9782,1020.46,11111222 
WAVCIS,ioos:station:WAVCIS:CSI09:1,2013-01-06T23:00:00Z,29.1015,-89.9782,1020.78,11111222 
WAVCIS,ioos:station:WAVCIS:CSI09:1,2013-01-07T00:00:00Z,29.1015,-89.9782,1021.59,11111222 
WAVCIS,ioos:station:WAVCIS:CSI09:1,2013-01-07T01:00:00Z,29.1015,-89.9782,1022.05,11111222 
WAVCIS,ioos:station:WAVCIS:CSI09:1,2013-01-07T02:00:00Z,29.1015,-89.9782,1022.41,11111222 
WAVCIS,ioos:station:WAVCIS:CSI09:1,2013-01-07T03:00:00Z,29.1015,-89.9782,1022.97,11111222 
WAVCIS,ioos:station:WAVCIS:CSI09:1,2013-01-07T04:00:00Z,29.1015,-89.9782,1023.26,11111222 
WAVCIS,ioos:station:WAVCIS:CSI09:1,2013-01-07T05:00:00Z,29.1015,-89.9782,1023.52,11111222 
WAVCIS,ioos:station:WAVCIS:CSI09:1,2013-01-07T06:00:00Z,29.1015,-89.9782,1023.09,11111222 
WAVCIS,ioos:station:WAVCIS:CSI09:1,2013-01-07T07:00:00Z,29.1015,-89.9782,1023.02,11111222 
WAVCIS,ioos:station:WAVCIS:CSI09:1,2013-01-07T08:00:00Z,29.1015,-89.9782,1022.34,11111222 
WAVCIS,ioos:station:WAVCIS:CSI09:1,2013-01-07T09:00:00Z,29.1015,-89.9782,1022.68,11111222 
WAVCIS,ioos:station:WAVCIS:CSI09:1,2013-01-07T10:00:00Z,29.1015,-89.9782,1022.5,11111222 
WAVCIS,ioos:station:WAVCIS:CSI09:1,2013-01-07T11:00:00Z,29.1015,-89.9782,1022.31,11111222 
WAVCIS,ioos:station:WAVCIS:CSI09:1,2013-01-07T12:00:00Z,29.1015,-89.9782,1022.27,11111222 
WAVCIS,ioos:station:WAVCIS:CSI09:1,2013-01-07T13:00:00Z,29.1015,-89.9782,1022.61,11111222 
WAVCIS,ioos:station:WAVCIS:CSI09:1,2013-01-07T14:00:00Z,29.1015,-89.9782,1023.15,11111222 
WAVCIS,ioos:station:WAVCIS:CSI09:1,2013-01-07T15:00:00Z,29.1015,-89.9782,1023.63,11111222 
WAVCIS,ioos:station:WAVCIS:CSI09:1,2013-01-07T16:00:00Z,29.1015,-89.9782,1024.11,11111222 
WAVCIS,ioos:station:WAVCIS:CSI09:1,2013-01-07T17:00:00Z,29.1015,-89.9782,1023.92,11111222 
WAVCIS,ioos:station:WAVCIS:CSI09:1,2013-01-07T18:00:00Z,29.1015,-89.9782,1022.67,11111222 
WAVCIS,ioos:station:WAVCIS:CSI09:1,2013-01-07T19:00:00Z,29.1015,-89.9782,1021.76,11111222 
WAVCIS,ioos:station:WAVCIS:CSI09:1,2013-01-07T20:00:00Z,29.1015,-89.9782,1021.01,11111222 
WAVCIS,ioos:station:WAVCIS:CSI09:1,2013-01-07T21:00:00Z,29.1015,-89.9782,1020.93,11111222 
WAVCIS,ioos:station:WAVCIS:CSI09:1,2013-01-07T22:00:00Z,29.1015,-89.9782,1021.41,11111222 
WAVCIS,ioos:station:WAVCIS:CSI09:1,2013-01-07T23:00:00Z,29.1015,-89.9782,1021.46,11111222 
WAVCIS,ioos:station:WAVCIS:CSI09:1,2013-01-08T00:00:00Z,29.1015,-89.9782,1020.83,11111222 
WAVCIS,ioos:station:WAVCIS:CSI09:1,2013-01-08T01:00:00Z,29.1015,-89.9782,1020.9,11111222 
WAVCIS,ioos:station:WAVCIS:CSI09:1,2013-01-08T02:00:00Z,29.1015,-89.9782,1021.15,11111222 
WAVCIS,ioos:station:WAVCIS:CSI09:1,2013-01-08T03:00:00Z,29.1015,-89.9782,1020.85,11111222 
WAVCIS,ioos:station:WAVCIS:CSI09:1,2013-01-08T04:00:00Z,29.1015,-89.9782,1020.83,11111222 
WAVCIS,ioos:station:WAVCIS:CSI09:1,2013-01-08T05:00:00Z,29.1015,-89.9782,1020.38,11111222 
WAVCIS,ioos:station:WAVCIS:CSI09:1,2013-01-08T06:00:00Z,29.1015,-89.9782,1019.91,11111222 
WAVCIS,ioos:station:WAVCIS:CSI09:1,2013-01-08T07:00:00Z,29.1015,-89.9782,1019.63,11111222 
WAVCIS,ioos:station:WAVCIS:CSI09:1,2013-01-08T08:00:00Z,29.1015,-89.9782,1018.82,11111222 
WAVCIS,ioos:station:WAVCIS:CSI09:1,2013-01-08T09:00:00Z,29.1015,-89.9782,1018.58,11111222 
WAVCIS,ioos:station:WAVCIS:CSI09:1,2013-01-08T10:00:00Z,29.1015,-89.9782,1017.74,11111222 
WAVCIS,ioos:station:WAVCIS:CSI09:1,2013-01-08T11:00:00Z,29.1015,-89.9782,1018.08,11111222 
WAVCIS,ioos:station:WAVCIS:CSI09:1,2013-01-08T12:00:00Z,29.1015,-89.9782,1018.67,11111222 
WAVCIS,ioos:station:WAVCIS:CSI09:1,2013-01-08T13:00:00Z,29.1015,-89.9782,1018.97,11111222 
WAVCIS,ioos:station:WAVCIS:CSI09:1,2013-01-08T14:00:00Z,29.1015,-89.9782,1019.73,11111222 
WAVCIS,ioos:station:WAVCIS:CSI09:1,2013-01-08T15:00:00Z,29.1015,-89.9782,1020.16,11111222 
WAVCIS,ioos:station:WAVCIS:CSI09:1,2013-01-08T16:00:00Z,29.1015,-89.9782,1020.69,11111222 
WAVCIS,ioos:station:WAVCIS:CSI09:1,2013-01-08T17:00:00Z,29.1015,-89.9782,1020.42,11111222 
WAVCIS,ioos:station:WAVCIS:CSI09:1,2013-01-08T18:00:00Z,29.1015,-89.9782,1019.16,11111222 
WAVCIS,ioos:station:WAVCIS:CSI09:1,2013-01-08T19:00:00Z,29.1015,-89.9782,1017.92,11111222 
WAVCIS,ioos:station:WAVCIS:CSI09:1,2013-01-08T20:00:00Z,29.1015,-89.9782,1017.11,11111222 
WAVCIS,ioos:station:WAVCIS:CSI09:1,2013-01-08T21:00:00Z,29.1015,-89.9782,1017.07,11111222 
WAVCIS,ioos:station:WAVCIS:CSI09:1,2013-01-08T22:00:00Z,29.1015,-89.9782,1016.71,11111222 
WAVCIS,ioos:station:WAVCIS:CSI09:1,2013-01-08T23:00:00Z,29.1015,-89.9782,1016.5,11111222 
WAVCIS,ioos:station:WAVCIS:CSI09:1,2013-01-09T00:00:00Z,29.1015,-89.9782,1016.86,11111222 
WAVCIS,ioos:station:WAVCIS:CSI09:1,2013-01-09T01:00:00Z,29.1015,-89.9782,1016.82,11111222 
WAVCIS,ioos:station:WAVCIS:CSI09:1,2013-01-09T02:00:00Z,29.1015,-89.9782,1017.01,11111222 
WAVCIS,ioos:station:WAVCIS:CSI09:1,2013-01-09T03:00:00Z,29.1015,-89.9782,1017.44,11111222 
WAVCIS,ioos:station:WAVCIS:CSI09:1,2013-01-09T04:00:00Z,29.1015,-89.9782,1018.28,11111222 
WAVCIS,ioos:station:WAVCIS:CSI09:1,2013-01-09T05:00:00Z,29.1015,-89.9782,1018.8,11111222 
WAVCIS,ioos:station:WAVCIS:CSI09:1,2013-01-09T06:00:00Z,29.1015,-89.9782,1018.11,11111222 
WAVCIS,ioos:station:WAVCIS:CSI09:1,2013-01-09T07:00:00Z,29.1015,-89.9782,1018.35,11111222 
WAVCIS,ioos:station:WAVCIS:CSI09:1,2013-01-09T08:00:00Z,29.1015,-89.9782,1018.19,11111222 
WAVCIS,ioos:station:WAVCIS:CSI09:1,2013-01-09T09:00:00Z,29.1015,-89.9782,1018.08,11111222 
WAVCIS,ioos:station:WAVCIS:CSI09:1,2013-01-09T10:00:00Z,29.1015,-89.9782,1017.57,11111222 
WAVCIS,ioos:station:WAVCIS:CSI09:1,2013-01-09T11:00:00Z,29.1015,-89.9782,1017.8,11111222 
WAVCIS,ioos:station:WAVCIS:CSI09:1,2013-01-09T12:00:00Z,29.1015,-89.9782,1018.24,11111222 
WAVCIS,ioos:station:WAVCIS:CSI09:1,2013-01-09T13:00:00Z,29.1015,-89.9782,1018.71,11111222 
WAVCIS,ioos:station:WAVCIS:CSI09:1,2013-01-09T14:00:00Z,29.1015,-89.9782,1018.84,11111222 
WAVCIS,ioos:station:WAVCIS:CSI09:1,2013-01-09T15:00:00Z,29.1015,-89.9782,1019.41,11111222 
WAVCIS,ioos:station:WAVCIS:CSI09:1,2013-01-09T16:00:00Z,29.1015,-89.9782,1020.22,11111222 
WAVCIS,ioos:station:WAVCIS:CSI09:1,2013-01-09T17:00:00Z,29.1015,-89.9782,1020.07,11111222 
WAVCIS,ioos:station:WAVCIS:CSI09:1,2013-01-09T18:00:00Z,29.1015,-89.9782,1018.94,11111222 
WAVCIS,ioos:station:WAVCIS:CSI09:1,2013-01-09T19:00:00Z,29.1015,-89.9782,1017.96,11111222 
WAVCIS,ioos:station:WAVCIS:CSI09:1,2013-01-09T20:00:00Z,29.1015,-89.9782,1017.59,11111222 
WAVCIS,ioos:station:WAVCIS:CSI09:1,2013-01-09T21:00:00Z,29.1015,-89.9782,1017.53,11111222 
WAVCIS,ioos:station:WAVCIS:CSI09:1,2013-01-09T22:00:00Z,29.1015,-89.9782,1017.55,11111222 
WAVCIS,ioos:station:WAVCIS:CSI09:1,2013-01-09T23:00:00Z,29.1015,-89.9782,1018.02,11111222 
WAVCIS,ioos:station:WAVCIS:CSI09:1,2013-01-10T00:00:00Z,29.1015,-89.9782,1018.76,11111222 
WAVCIS,ioos:station:WAVCIS:CSI09:1,2013-01-10T01:00:00Z,29.1015,-89.9782,1019.37,11111222 
WAVCIS,ioos:station:WAVCIS:CSI09:1,2013-01-10T02:00:00Z,29.1015,-89.9782,1019.55,11111222 
WAVCIS,ioos:station:WAVCIS:CSI09:1,2013-01-10T03:00:00Z,29.1015,-89.9782,1019.85,11111222 
WAVCIS,ioos:station:WAVCIS:CSI09:1,2013-01-10T04:00:00Z,29.1015,-89.9782,1020.07,11111222 
WAVCIS,ioos:station:WAVCIS:CSI09:1,2013-01-10T05:00:00Z,29.1015,-89.9782,1020.33,11111222 
WAVCIS,ioos:station:WAVCIS:CSI09:1,2013-01-10T06:00:00Z,29.1015,-89.9782,1020.02,11111222 
WAVCIS,ioos:station:WAVCIS:CSI09:1,2013-01-10T07:00:00Z,29.1015,-89.9782,1019.5,11111222 
WAVCIS,ioos:station:WAVCIS:CSI09:1,2013-01-10T08:00:00Z,29.1015,-89.9782,1019.39,11111222 
WAVCIS,ioos:station:WAVCIS:CSI09:1,2013-01-10T09:00:00Z,29.1015,-89.9782,1018.29,11111222 
WAVCIS,ioos:station:WAVCIS:CSI09:1,2013-01-10T10:00:00Z,29.1015,-89.9782,1017.25,11111222 
WAVCIS,ioos:station:WAVCIS:CSI09:1,2013-01-10T11:00:00Z,29.1015,-89.9782,1016.69,11111222 
WAVCIS,ioos:station:WAVCIS:CSI09:1,2013-01-10T12:00:00Z,29.1015,-89.9782,1017.11,11111222 
WAVCIS,ioos:station:WAVCIS:CSI09:1,2013-01-10T13:00:00Z,29.1015,-89.9782,1017.89,11111222 
WAVCIS,ioos:station:WAVCIS:CSI09:1,2013-01-10T14:00:00Z,29.1015,-89.9782,1018.9,11111222 
WAVCIS,ioos:station:WAVCIS:CSI09:1,2013-01-10T15:00:00Z,29.1015,-89.9782,1019.68,11111222 
WAVCIS,ioos:station:WAVCIS:CSI09:1,2013-01-10T16:00:00Z,29.1015,-89.9782,1018.3,11111222 
WAVCIS,ioos:station:WAVCIS:CSI09:1,2013-01-10T17:00:00Z,29.1015,-89.9782,1022.06,11111222 
WAVCIS,ioos:station:WAVCIS:CSI09:1,2013-01-10T18:00:00Z,29.1015,-89.9782,1019.53,11111222 
WAVCIS,ioos:station:WAVCIS:CSI09:1,2013-01-10T19:00:00Z,29.1015,-89.9782,1019.36,11111222 
WAVCIS,ioos:station:WAVCIS:CSI09:1,2013-01-10T20:00:00Z,29.1015,-89.9782,1018.76,11111222 
WAVCIS,ioos:station:WAVCIS:CSI09:1,2013-01-10T21:00:00Z,29.1015,-89.9782,1019.69,11111222 
WAVCIS,ioos:station:WAVCIS:CSI09:1,2013-01-10T22:00:00Z,29.1015,-89.9782,1018.46,11111222 
WAVCIS,ioos:station:WAVCIS:CSI09:1,2013-01-10T23:00:00Z,29.1015,-89.9782,1017.97,11111222 
WAVCIS,ioos:station:WAVCIS:CSI09:1,2013-01-11T00:00:00Z,29.1015,-89.9782,1017.44,11111222 
WAVCIS,ioos:station:WAVCIS:CSI09:1,2013-01-11T01:00:00Z,29.1015,-89.9782,1014.6,11111222 
WAVCIS,ioos:station:WAVCIS:CSI09:1,2013-01-11T02:00:00Z,29.1015,-89.9782,1014.61,11111222 
WAVCIS,ioos:station:WAVCIS:CSI09:1,2013-01-11T03:00:00Z,29.1015,-89.9782,1016.95,11111222 
WAVCIS,ioos:station:WAVCIS:CSI09:1,2013-01-11T04:00:00Z,29.1015,-89.9782,1017.34,11111222 
WAVCIS,ioos:station:WAVCIS:CSI09:1,2013-01-11T05:00:00Z,29.1015,-89.9782,1018.02,11111222 
WAVCIS,ioos:station:WAVCIS:CSI09:1,2013-01-11T06:00:00Z,29.1015,-89.9782,1018.02,11111222 
WAVCIS,ioos:station:WAVCIS:CSI09:1,2013-01-11T07:00:00Z,29.1015,-89.9782,1018.18,11111222 
WAVCIS,ioos:station:WAVCIS:CSI09:1,2013-01-11T08:00:00Z,29.1015,-89.9782,1017.76,11111222 
WAVCIS,ioos:station:WAVCIS:CSI09:1,2013-01-11T09:00:00Z,29.1015,-89.9782,1017.51,11111222 
WAVCIS,ioos:station:WAVCIS:CSI09:1,2013-01-11T10:00:00Z,29.1015,-89.9782,1017.14,11111222 
WAVCIS,ioos:station:WAVCIS:CSI09:1,2013-01-11T11:00:00Z,29.1015,-89.9782,1017.06,11111222 
WAVCIS,ioos:station:WAVCIS:CSI09:1,2013-01-11T12:00:00Z,29.1015,-89.9782,1017.31,11111222 
WAVCIS,ioos:station:WAVCIS:CSI09:1,2013-01-11T13:00:00Z,29.1015,-89.9782,1018.02,11111222 
WAVCIS,ioos:station:WAVCIS:CSI09:1,2013-01-11T14:00:00Z,29.1015,-89.9782,1018.34,11111222 
WAVCIS,ioos:station:WAVCIS:CSI09:1,2013-01-11T15:00:00Z,29.1015,-89.9782,1018.77,11111222 
WAVCIS,ioos:station:WAVCIS:CSI09:1,2013-01-11T16:00:00Z,29.1015,-89.9782,1018.88,11111222 
WAVCIS,ioos:station:WAVCIS:CSI09:1,2013-01-11T17:00:00Z,29.1015,-89.9782,1018.47,11111222 
WAVCIS,ioos:station:WAVCIS:CSI09:1,2013-01-11T18:00:00Z,29.1015,-89.9782,1017.3,11111222 
WAVCIS,ioos:station:WAVCIS:CSI09:1,2013-01-11T19:00:00Z,29.1015,-89.9782,1016.62,11111222 
WAVCIS,ioos:station:WAVCIS:CSI09:1,2013-01-11T20:00:00Z,29.1015,-89.9782,1015.85,11111222 
WAVCIS,ioos:station:WAVCIS:CSI09:1,2013-01-11T21:00:00Z,29.1015,-89.9782,1015.8,11111222 
WAVCIS,ioos:station:WAVCIS:CSI09:1,2013-01-11T22:00:00Z,29.1015,-89.9782,1016.15,11111222 